This demonstration page uses our WeatherBlox Daily Observations layout. Learn more.

Left ArrowRight Arrow

Hourly Observations for December 12, 2019

Temp ( °F °C ) Dew Point ( °F °C ) Humidity (%) Winds ( mph kmh ) Pressure ( in mb ) Visibility ( mi km ) Precip ( " mm )
12:53 am 00:53 Mostly Clear 8 -13.3 4 -15.6 83 83 E 5 7 30.03 1017 8 13 0.00 0.00
1:53 am 01:53 Clear 10 -12.2 6 -14.4 84 84 ENE 8 13 30.01 1016 9 14 0.00 0.00
2:53 am 02:53 Clear 10 -12.2 7 -13.9 87 87 E 8 13 29.98 1015 9 14 0.00 0.00
3:53 am 03:53 Clear 9 -12.8 6 -14.4 88 88 ENE 8 13 29.95 1014 9 14 0.00 0.00
4:53 am 04:53 Clear 8 -13.3 4 -15.6 83 83 ENE 8 13 29.94 1014 8 13 0.00 0.00
5:53 am 05:53 Clear 7 -13.9 4 -15.6 87 87 E 7 11 29.93 1013 8 13 0.00 0.00
6:53 am 06:53 Cloudy 8 -13.3 5 -15 87 87 E 8 13 29.92 1013 8 13 0.00 0.00
7:53 am 07:53 Cloudy 9 -12.8 6 -14.4 88 88 E 10 17 29.91 1013 8 13 0.00 0.00
8:53 am 08:53 Cloudy 10 -12.2 7 -13.9 87 87 ENE 7 11 29.90 1012 8 13 0.00 0.00
9:53 am 09:53 Mostly Cloudy 12 -11.1 8 -13.3 84 84 NE 3 6 29.89 1012 9 14 0.00 0.00
10:53 am 10:53 Cloudy 13 -10.6 10 -12.2 88 88 E 5 7 29.87 1012 10 16 0.00 0.00
11:53 am 11:53 Cloudy 16 -8.9 12 -11.1 84 84 E 8 13 29.83 1010 10 16 0.00 0.00
12:53 pm 12:53 Cloudy 18 -7.8 14 -10 84 84 Calm 29.82 1010 10 16 0.00 0.00
1:53 pm 13:53 Cloudy 20 -6.7 15 -9.4 81 81 Calm 29.82 1010 10 16 0.00 0.00
2:53 pm 14:53 Cloudy 22 -5.6 16 -8.9 78 78 W 5 7 29.82 1010 10 16 0.00 0.00
3:53 pm 15:53 Cloudy 23 -5 18 -7.8 81 81 W 5 7 29.83 1010 10 16 0.00 0.00
4:53 pm 16:53 Clear 34 1.1 27 -2.8 76 76 SW 16 26 29.82 1010 10 16 0.00 0.00
5:53 pm 17:53 Mostly Clear 34 1.1 27 -2.8 76 76 SW 14 22 29.83 1010 10 16 0.00 0.00
6:53 pm 18:53 Mostly Clear 25 -3.9 20 -6.7 81 81 WSW 6 9 29.86 1011 10 16 0.00 0.00
7:53 pm 19:53 Mostly Cloudy 22 -5.6 18 -7.8 85 85 WNW 5 7 29.88 1012 10 16 0.00 0.00
8:53 pm 20:53 Clear 14 -10 10 -12.2 84 84 Calm 29.90 1013 9 14 0.00 0.00
9:53 pm 21:53 Clear 13 -10.6 10 -12.2 88 88 WNW 3 6 29.89 1012 10 16 0.00 0.00
10:53 pm 22:53 Clear 12 -11.1 9 -12.8 87 87 WNW 7 11 29.91 1013 9 14 0.00 0.00
11:53 pm 23:53 Clear 12 -11.1 9 -12.8 87 87 SW 7 11 29.92 1013 10 16 0.00 0.00

Powered by AerisWeather